Content
SEND FEEDBACK

Daily
Averages
Monthly
Summary
United States of America

WAWALOLI BEACH PARK, HAWAII


Home > North America > United States > Hawaii
Elevation: 20 feet     Latitude: 19 44N     Longitude: 156 04W

WEATHER
 
SELECT A DAY
Number of Records: 173,643;   Date Range: 1/1/95 - 12/23/14
 
SHARE

PRINT THIS DATA

[ ← Previous Day ]
WEATHER ALMANAC - FEBRUARY 13, 2013
[ Next Day → ]
[ °C ]   °F
Weather ElementAverageHighLow
Temperature73.9 °F80.1 °F (11:53 am)66.9 °F (3:53 am)
Dewpoint53.2 °F57.9 °F (5:53 pm)48 °F (5:53 am)
Humidity48.4 %55 % (6:53 pm)36 % (8:53 am)
Barometer30.03 in30.07 in (9:53 am)29.98 in (3:53 pm)
Wind Speed8.5 mph12.7 mph (1:53 am)
Weather ElementAverage
Visibility10 mi
Wind DirectionE (89.1 °)

Weather ElementTotal
Precipitation---
Cooling Degree Days8.5 (Base 65)
Growing Degree Days23.5 (Base 50)
Averaged from 23 records on February 13, 2013
WEATHER CONDITIONS BREAKOUT
WIND DIRECTION BREAKOUT
WEATHER BY HOUR - FEBRUARY 13, 2013
[ °C ]   °F
Local TimeTemperatureDewpointHumidityBarometerVisibilityWind DirectionWind SpeedGust SpeedPrecipitationEventsConditions
1:53 AM70.0 °F50.0 °F49 %30.06 in10.0 miNNE (30°)12.7 mphClear
2:53 AM69.1 °F50.0 °F51 %30.04 in10.0 miNNE (30°)10.4 mphClear
3:53 AM66.9 °F48.9 °F52 %30.02 in10.0 miNE (40°)12.7 mphClear
4:53 AM68.0 °F50.0 °F52 %30.02 in10.0 miNE (40°)9.2 mphClear
5:53 AM68.0 °F48.0 °F49 %30.03 in10.0 miNE (40°)10.4 mphClear
6:53 AM68.0 °F48.0 °F49 %30.04 in10.0 miENE (70°)8.1 mphClear
7:53 AM71.1 °F48.0 °F44 %30.06 in10.0 miNE (40°)10.4 mphClear
8:53 AM77.0 °F48.0 °F36 %30.06 in10.0 miNNE (20°)8.1 mphClear
9:53 AM75.9 °F57.0 °F52 %30.07 in10.0 miCalmOvercast
10:53 AM78.1 °F57.0 °F48 %30.07 in10.0 miSouth (190°)6.9 mphMostly Cloudy
11:53 AM80.1 °F55.9 °F43 %30.06 in10.0 miSSW (200°)10.4 mphMostly Cloudy
12:53 PM78.1 °F55.9 °F46 %30.04 in10.0 miSouth (170°)9.2 mphOvercast
1:53 PM78.1 °F55.9 °F46 %30.01 in10.0 miSouth (170°)9.2 mphOvercast
2:53 PM79.0 °F57.0 °F47 %29.99 in10.0 miSouth (180°)11.5 mphScattered Clouds
3:53 PM78.1 °F55.9 °F46 %29.98 in10.0 miSouth (170°)8.1 mphMostly Cloudy
4:53 PM77.0 °F57.0 °F50 %29.99 in10.0 miSSE (160°)12.7 mphOvercast
5:53 PM75.9 °F57.9 °F54 %30.00 in10.0 miSouth (180°)9.2 mphOvercast
6:53 PM75.0 °F57.9 °F55 %30.02 in10.0 miSW (230°)4.6 mphOvercast
7:53 PM75.0 °F54.0 °F48 %30.03 in10.0 miNNE (20°)4.6 mphOvercast
8:53 PM75.0 °F53.1 °F46 %30.04 in10.0 miNNE (30°)3.5 mphOvercast
9:53 PM73.0 °F52.0 °F48 %30.05 in10.0 miNorth (10°)9.2 mphOvercast
10:53 PM72.0 °F52.0 °F49 %30.06 in10.0 miNorth (10°)8.1 mphOvercast
11:53 PM71.1 °F53.1 °F53 %30.04 in10.0 miNNE (20°)6.9 mphOvercast
Hourly data recorded from PHKO, located miles away from Wawaloli Beach Park, Hawaii







STORIES FROM OUR PARTNERS